This demonstration page uses our WeatherBlox Daily Observations layout. Learn more.

39.29038, -76.61219

Hourly Observations for November 23, 2019

Temp ( °F °C ) Dew Point ( °F °C ) Humidity (%) Winds ( mph kmh ) Pressure ( in mb ) Visibility ( mi km ) Precip ( " mm )
12:54 am 00:54 undefined 40 4.4 25 -3.9 55 55 undefined N/A 30.08 1019 N/A 0 0
1:54 am 01:54 undefined 39 3.9 25 -3.9 57 57 undefined N/A 30.09 1019 N/A 0 0
2:54 am 02:54 undefined 39 3.9 24 -4.4 55 55 undefined N/A 30.08 1019 N/A 0 0
3:54 am 03:54 undefined 38 3.3 23 -5 55 55 undefined N/A 30.07 1018 N/A 0 0
4:54 am 04:54 undefined 38 3.3 23 -5 55 55 undefined N/A 30.08 1019 N/A 0 0
5:54 am 05:54 undefined 38 3.3 23 -5 55 55 undefined N/A 30.07 1018 N/A 0 0
6:54 am 06:54 undefined 36 2.2 23 -5 59 59 undefined N/A 30.09 1019 N/A 0 0
7:54 am 07:54 undefined 38 3.3 25 -3.9 60 60 undefined N/A 30.1 1019 N/A 0 0
8:54 am 08:54 undefined 40 4.4 24 -4.4 53 53 undefined N/A 30.08 1019 N/A 0 0
9:54 am 09:54 undefined 45 7.2 26 -3.3 48 48 undefined N/A 30.09 1019 N/A 0 0
10:54 am 10:54 undefined 43 6.1 25 -3.9 49 49 undefined N/A 30.07 1018 N/A 0 0
11:54 am 11:54 undefined 43 6.1 25 -3.9 49 49 undefined N/A 30.04 1017 N/A 0 0
12:54 pm 12:54 undefined 43 6.1 27 -2.8 53 53 undefined N/A 29.99 1016 N/A 0 0
1:54 pm 13:54 undefined 44 6.7 29 -1.7 55 55 undefined N/A 29.97 1015 N/A 0 0
2:54 pm 14:54 undefined 43 6.1 29 -1.7 58 58 undefined N/A 29.94 1014 N/A 0 0
4:54 pm 16:54 undefined 43 6.1 30 -1.1 60 60 undefined N/A 29.88 1012 N/A 0 0
5:54 pm 17:54 undefined 43 6.1 32 0 65 65 undefined N/A 29.86 1011 N/A 0 0
6:54 pm 18:54 undefined 41 5 34 1.1 76 76 undefined N/A 29.82 1010 N/A 0 0
7:54 pm 19:54 undefined 42 5.6 33 0.6 71 71 undefined N/A 29.8 1009 N/A 0 0
8:54 pm 20:54 undefined 42 5.6 34 1.1 73 73 undefined N/A 29.75 1008 N/A 0 0
9:54 pm 21:54 undefined 41 5 35 1.7 79 79 undefined N/A 29.71 1006 N/A 0.02 0.508
10:54 pm 22:54 undefined 40 4.4 37 2.8 89 89 undefined N/A 29.65 1004 N/A 0.19 4.826
11:54 pm 23:54 undefined 41 5 38 3.3 89 89 undefined N/A 29.62 1003 N/A 0.1 2.54

Powered by AerisWeather